Location: Gombori
(14.9797°N, 2.9419°W)
Time: 02:43:12
(UTC+00:00)

Meteor 2-13 Rocket - Pass Details

Date: 05 December 2021
Orbit: 936 x 957 km, 82.5° (Epoch: 24 January)

Event Time Altitude Azimuth Distance (km) Brightness Sun altitude
Rises 05:02:24 0° 197° (SSW) 3,620 7.5 -19.2°
Reaches altitude 10° 05:04:59 10° 203° (SSW) 2,673 6.8 -18.6°
Maximum altitude 05:10:50 47° 275° (W) 1,231 4.6 -17.3°
Drops below altitude 10° 05:16:40 10° 349° (NNW) 2,663 6.5 -16.0°
Sets 05:19:15 0° 355° (N) 3,605 7.2 -15.4°
